When you browse on this site, cookies collect data to enhance your experience and personalize the content and advertising you see.
Visit our Privacy Policy to learn more. By continuing to use the site, you agree to this use of cookies and data.
  • In United Kingdom
  • List of Countries
  • For 7 days
  • Water Temperature
  • Satellite Maps
  • Weather Map
  • Weather Widgets
  • user-avatar
    Login

    Hourly Weather Abingdon

    Today, 21 March, Thursday

    Time Temperature Precipitation Wind Pressure Humidity
    00:00 +7°C° 0 mm 3 mps 769 mmHg 96%
    01:00 +7°C° 0 mm 3 mps 769 mmHg 96%
    02:00 +7°C° 0 mm 2 mps 768 mmHg 97%
    03:00 +6°C° 0 mm 2 mps 768 mmHg 97%
    04:00 +6°C° 0 mm 2 mps 768 mmHg 97%
    05:00 +6°C° 0 mm 2 mps 768 mmHg 97%
    06:00 +6°C° 0 mm 2 mps 769 mmHg 97%
    07:00 +8°C° 0 mm 2 mps 769 mmHg 94%
    08:00 +9°C° 0 mm 2 mps 769 mmHg 91%
    09:00 +12°C° 0 mm 2 mps 769 mmHg 88%
    10:00 +13°C° 0 mm 2 mps 769 mmHg 84%
    11:00 +14°C° 0 mm 2 mps 769 mmHg 81%
    12:00 +14°C° 0 mm 2 mps 769 mmHg 80%
    13:00 +14°C° 0 mm 1 mps 769 mmHg 80%
    14:00 +14°C° 0 mm 1 mps 769 mmHg 80%
    15:00 +14°C° 0 mm 1 mps 768 mmHg 80%
    16:00 +13°C° 0 mm 1 mps 768 mmHg 81%
    17:00 +13°C° 0 mm 1 mps 768 mmHg 83%
    18:00 +12°C° 0 mm 1 mps 768 mmHg 85%
    19:00 +12°C° 0 mm 1 mps 768 mmHg 84%
    20:00 +12°C° 0 mm 1 mps 768 mmHg 84%
    21:00 +12°C° 0 mm 1 mps 768 mmHg 83%
    22:00 +12°C° 0 mm 1 mps 767 mmHg 85%
    23:00 +10°C° 0 mm 2 mps 767 mmHg 86%

    Tomorrow, 22 March, Friday

    Time Temperature Precipitation Wind Pressure Humidity
    00:00 +10°C° 0 mm 2 mps 767 mmHg 87%
    01:00 +9°C° 0 mm 2 mps 767 mmHg 90%
    02:00 +8°C° 0 mm 2 mps 766 mmHg 93%
    03:00 +8°C° 0 mm 2 mps 766 mmHg 96%
    04:00 +7°C° 0 mm 3 mps 766 mmHg 96%
    05:00 +7°C° 0 mm 3 mps 766 mmHg 97%
    06:00 +5°C° 0 mm 3 mps 765 mmHg 97%
    07:00 +8°C° 0 mm 3 mps 765 mmHg 93%
    08:00 +8°C° 0 mm 4 mps 765 mmHg 89%
    09:00 +9°C° 0 mm 5 mps 765 mmHg 85%
    10:00 +12°C° 0 mm 5 mps 765 mmHg 82%
    11:00 +13°C° 0 mm 5 mps 765 mmHg 78%
    12:00 +14°C° 0 mm 5 mps 765 mmHg 75%
    13:00 +13°C° 0 mm 5 mps 765 mmHg 76%
    14:00 +13°C° 0 mm 5 mps 764 mmHg 78%
    15:00 +13°C° 0 mm 4 mps 764 mmHg 80%
    16:00 +12°C° 0 mm 4 mps 764 mmHg 81%
    17:00 +12°C° 0 mm 3 mps 764 mmHg 83%
    18:00 +12°C° 0 mm 3 mps 764 mmHg 85%
    19:00 +11°C° 0 mm 3 mps 764 mmHg 88%
    20:00 +10°C° 0 mm 3 mps 765 mmHg 91%
    21:00 +9°C° 0 mm 3 mps 765 mmHg 94%
    22:00 +8°C° 0 mm 3 mps 765 mmHg 94%
    23:00 +8°C° 0 mm 3 mps 765 mmHg 95%

    Day after tomorrow, 23 March, Saturday

    Time Temperature Precipitation Wind Pressure Humidity
    00:00 +7°C° 0 mm 3 mps 765 mmHg 95%
    01:00 +7°C° 0 mm 3 mps 765 mmHg 96%
    02:00 +8°C° 0 mm 2 mps 766 mmHg 96%
    03:00 +8°C° 0 mm 2 mps 766 mmHg 96%
    04:00 +8°C° 0 mm 3 mps 766 mmHg 94%
    05:00 +8°C° 0 mm 3 mps 767 mmHg 92%
    06:00 +8°C° 0 mm 3 mps 767 mmHg 90%
    07:00 +7°C° 0 mm 4 mps 768 mmHg 85%
    08:00 +7°C° 0 mm 4 mps 768 mmHg 81%
    09:00 +7°C° 0 mm 5 mps 768 mmHg 77%
    10:00 +8°C° 0 mm 4 mps 768 mmHg 74%
    11:00 +10°C° 0 mm 4 mps 769 mmHg 72%
    12:00 +10°C° 0 mm 4 mps 769 mmHg 69%
    13:00 +10°C° 0 mm 4 mps 769 mmHg 70%
    14:00 +10°C° 0 mm 3 mps 768 mmHg 70%
    15:00 +10°C° 0 mm 3 mps 768 mmHg 70%
    16:00 +10°C° 0 mm 3 mps 768 mmHg 73%
    17:00 +9°C° 0 mm 2 mps 768 mmHg 77%
    18:00 +9°C° 0 mm 2 mps 768 mmHg 80%
    19:00 +8°C° 0 mm 2 mps 769 mmHg 81%
    20:00 +7°C° 0 mm 2 mps 769 mmHg 82%
    21:00 +7°C° 0 mm 2 mps 769 mmHg 82%
    22:00 +7°C° 0 mm 2 mps 769 mmHg 81%
    23:00 +7°C° 0 mm 2 mps 769 mmHg 79%

    24 March, Sunday

    Time Temperature Precipitation Wind Pressure Humidity
    00:00 +6°C° 0 mm 2 mps 769 mmHg 77%
    01:00 +6°C° 0 mm 2 mps 769 mmHg 78%
    02:00 +6°C° 0 mm 2 mps 769 mmHg 78%
    03:00 +5°C° 0 mm 2 mps 769 mmHg 79%
    04:00 +5°C° 0 mm 2 mps 769 mmHg 80%
    05:00 +4°C° 0 mm 2 mps 769 mmHg 81%
    06:00 +3°C° 0 mm 2 mps 769 mmHg 82%
    07:00 +5°C° 0 mm 2 mps 769 mmHg 78%
    08:00 +6°C° 0 mm 2 mps 770 mmHg 73%
    09:00 +7°C° 0 mm 3 mps 770 mmHg 68%
    10:00 +8°C° 0 mm 3 mps 771 mmHg 66%
    11:00 +9°C° 0 mm 3 mps 771 mmHg 64%
    12:00 +10°C° 0 mm 3 mps 771 mmHg 62%
    13:00 +10°C° 0 mm 3 mps 771 mmHg 63%
    14:00 +10°C° 0 mm 3 mps 770 mmHg 64%
    15:00 +10°C° 0 mm 3 mps 770 mmHg 65%
    16:00 +9°C° 0 mm 3 mps 770 mmHg 69%
    17:00 +8°C° 0 mm 2 mps 770 mmHg 72%
    18:00 +8°C° 0 mm 2 mps 771 mmHg 75%
    19:00 +7°C° 0 mm 2 mps 771 mmHg 77%
    20:00 +5°C° 0 mm 2 mps 771 mmHg 79%
    21:00 +3°C° 0 mm 3 mps 772 mmHg 81%
    22:00 +3°C° 0 mm 3 mps 772 mmHg 80%
    23:00 +2°C° 0 mm 3 mps 772 mmHg 79%

    25 March, Monday

    Time Temperature Precipitation Wind Pressure Humidity
    00:00 +2°C° 0 mm 3 mps 772 mmHg 79%
    01:00 +2°C° 0 mm 3 mps 772 mmHg 82%
    02:00 +2°C° 0 mm 2 mps 772 mmHg 85%
    03:00 +2°C° 0 mm 2 mps 772 mmHg 88%
    04:00 +2°C° 0 mm 2 mps 772 mmHg 89%
    05:00 +2°C° 0 mm 2 mps 772 mmHg 91%
    06:00 +2°C° 0 mm 2 mps 772 mmHg 93%
    07:00 +4°C° 0 mm 2 mps 772 mmHg 87%
    08:00 +5°C° 0 mm 3 mps 772 mmHg 82%
    09:00 +7°C° 0 mm 3 mps 773 mmHg 77%
    10:00 +9°C° 0 mm 3 mps 772 mmHg 71%
    11:00 +10°C° 0 mm 3 mps 772 mmHg 66%
    12:00 +11°C° 0 mm 3 mps 772 mmHg 61%
    13:00 +11°C° 0 mm 3 mps 772 mmHg 62%
    14:00 +11°C° 0 mm 3 mps 772 mmHg 64%
    15:00 +11°C° 0 mm 3 mps 771 mmHg 65%
    16:00 +10°C° 0 mm 2 mps 771 mmHg 69%
    17:00 +9°C° 0 mm 2 mps 771 mmHg 74%
    18:00 +9°C° 0 mm 1 mps 771 mmHg 78%
    19:00 +8°C° 0 mm 1 mps 772 mmHg 80%
    20:00 +8°C° 0 mm 1 mps 772 mmHg 82%
    21:00 +7°C° 0 mm 1 mps 773 mmHg 84%
    22:00 +6°C° 0 mm 1 mps 773 mmHg 85%
    23:00 +6°C° 0 mm 1 mps 773 mmHg 86%

    26 March, Tuesday

    Time Temperature Precipitation Wind Pressure Humidity
    00:00 +6°C° 0 mm 1 mps 773 mmHg 87%
    01:00 +5°C° 0 mm 1 mps 773 mmHg 87%
    02:00 +5°C° 0 mm 1 mps 773 mmHg 88%
    03:00 +4°C° 0 mm 0 mps 773 mmHg 89%
    04:00 +4°C° 0 mm 1 mps 773 mmHg 89%
    05:00 +4°C° 0 mm 1 mps 773 mmHg 89%
    06:00 +4°C° 0 mm 1 mps 773 mmHg 89%
    07:00 +6°C° 0 mm 1 mps 773 mmHg 84%
    08:00 +8°C° 0 mm 1 mps 773 mmHg 79%
    09:00 +10°C° 0 mm 1 mps 773 mmHg 74%
    10:00 +10°C° 0 mm 2 mps 773 mmHg 69%
    11:00 +12°C° 0 mm 2 mps 773 mmHg 64%
    12:00 +13°C° 0 mm 2 mps 773 mmHg 59%
    13:00 +13°C° 0 mm 2 mps 773 mmHg 58%
    14:00 +14°C° 0 mm 1 mps 772 mmHg 57%
    15:00 +14°C° 0 mm 1 mps 772 mmHg 56%
    16:00 +13°C° 0 mm 1 mps 771 mmHg 61%
    17:00 +12°C° 0 mm 1 mps 771 mmHg 66%
    18:00 +11°C° 0 mm 1 mps 771 mmHg 71%
    19:00 +10°C° 0 mm 1 mps 771 mmHg 73%
    20:00 +8°C° 0 mm 1 mps 772 mmHg 75%
    21:00 +7°C° 0 mm 1 mps 772 mmHg 77%
    22:00 +7°C° 0 mm 1 mps 772 mmHg 81%
    23:00 +7°C° 0 mm 1 mps 772 mmHg 84%
    Show more